Location: Unspecified
(52.0000°N, 19.0000°E)
Time: 14:03:31
(UTC+00:00)

ISS - Visible Passes

Search period start: 24 May 2018 00:00
Search period end: 03 June 2018 00:00
Orbit: 402 x 407 km, 51.6° (Epoch: 25 May)

Date Brightness Start Highest point End Pass type
(mag) Time Alt. Az. Time Alt. Az. Time Alt. Az.
24 May -1.4 01:00:16 10° W 01:00:18 10° WSW 01:00:18 10° WSW visible
24 May -4.0 20:54:34 10° W 20:57:50 81° S 21:01:06 10° E visible
24 May -4.0 22:31:02 10° W 22:34:17 71° SSW 22:35:43 30° ESE visible
25 May -1.6 00:07:43 10° W 00:08:18 13° W 00:08:18 13° W visible
25 May -3.9 20:02:24 10° WSW 20:05:39 69° SSE 20:08:54 10° E visible
25 May -4.0 21:38:50 10° W 21:42:07 82° S 21:44:37 16° E visible
25 May -2.5 23:15:22 10° W 23:17:14 26° WSW 23:17:14 26° WSW visible
26 May -3.9 20:46:37 10° W 20:49:54 87° S 20:53:11 10° E visible
26 May -3.7 22:23:06 10° W 22:26:17 50° SSW 22:26:25 49° SSW visible
27 May -3.9 19:54:24 10° W 19:57:41 84° S 20:00:57 10° E visible
27 May -3.9 21:30:52 10° W 21:34:07 65° SSW 21:35:42 27° ESE visible
27 May -1.5 23:07:39 10° W 23:08:18 14° WSW 23:08:18 14° WSW visible
28 May -3.9 20:38:38 10° W 20:41:55 79° S 20:45:01 11° ESE visible
28 May -2.8 22:15:13 10° W 22:17:39 29° SW 22:17:39 29° SW visible
29 May -3.9 19:46:23 10° W 19:49:40 86° S 19:52:57 10° E visible
29 May -3.5 21:22:52 10° W 21:26:02 44° SSW 21:27:01 33° SSE visible
30 May -3.8 20:30:36 10° W 20:33:50 60° SSW 20:36:24 15° ESE visible
30 May -1.9 22:07:30 10° W 22:09:02 17° WSW 22:09:02 17° WSW visible
31 May -3.8 19:38:19 10° W 19:41:36 74° S 19:44:51 10° ESE visible
31 May -2.7 21:14:57 10° W 21:17:47 27° SSW 21:18:27 25° S visible
01 Jun -3.2 20:22:32 10° W 20:25:39 39° SSW 20:27:53 16° SE visible
02 Jun -1.9 21:07:17 10° WSW 21:09:24 16° SW 21:09:59 16° SSW visible
